Wetbulb
49.00 47.80 45.38 46.25 46.48 45.82 44.69 43.60 43.17 47.02 47.96 46.22 48.20 47.80 50.66 51.57 55.41 55.62 57.15 59.26 58.03 61.32 64.34 66.53 67.58 68.77 70.22 71.72 72.04 72.27 72.09 72.88 72.47 71.07 70.68 70.78 70.36 71.31 71.59 71.87 71.15 72.07 72.24 71.88
47.62 45.08 47.21 47.24 46.41 45.38 44.41 43.95 44.80 47.52 47.95 47.00 48.36 47.57 50.93 51.43 53.77 56.48 58.73 61.10 62.50 63.31 65.63 66.35 67.55 68.31 67.67 68.57 70.34 70.78 71.55 71.74 71.54 71.18 71.41 71.34 70.96 71.40 71.75 72.48 72.96 71.77 72.17 72.66
45.46 46.26 47.76 48.05 47.42 46.21 45.20 44.64 44.51 44.46 47.64 48.88 47.08 46.16 47.89 49.55 54.55 56.88 59.06 60.29 60.93 63.23 63.88 63.09 64.53 66.81 68.38 68.48 68.88 69.54 70.67 71.41 71.67 72.22 72.04 72.38 72.94 73.06 71.31 71.33 72.01 72.60 70.74 71.47
46.14 47.69 47.17 47.28 45.47 46.67 43.42 45.90 45.79 45.06 44.61 41.11 46.75 39.37 46.02 49.35 50.74 53.21 55.89 57.20 59.02 61.54 62.05 61.53 62.40 62.71 63.99 65.91 68.46 70.18 70.58 70.68 71.58 72.22 71.86 71.86 70.83 70.15 72.13 72.68 74.09 74.26 73.60 73.13
44.10 45.77 46.07 45.64 44.68 46.90 43.15 46.24 45.44 45.01 43.94 43.23 43.31 40.69 44.57 48.64 48.73 50.10 53.75 55.48 56.30 60.12 60.78 58.86 59.67 59.71 60.50 61.73 64.07 66.27 67.68 69.23 71.52 72.81 72.59 71.88 71.91 72.57 72.99 73.11 73.22 73.28 73.26 73.15
46.27 49.08 47.73 46.38 47.85 47.09 46.14 44.84 43.90 43.76 42.99 37.75 41.91 41.11 43.20 46.13 47.20 50.00 52.81 54.09 53.53 57.69 59.04 58.42 59.06 59.64 59.45 60.71 61.23 61.57 61.35 61.31 63.02 65.98 68.19 68.98 68.70 69.35 69.63 70.29 70.33 69.59 71.17 69.79
44.75 44.76 47.24 47.57 44.15 45.38 45.68 42.71 36.83 35.86 37.55 36.75 41.98 40.23 43.35 48.14 49.28 49.97 50.52 51.99 51.22 52.55 54.68 55.42 56.92 55.99 56.61 57.64 59.10 60.02 60.45 59.94 60.18 62.19 62.74 63.02 63.51 63.53 64.16 66.65 66.94 66.79 66.25 67.56
40.41 38.26 44.03 45.99 43.59 41.58 43.17 42.09 36.14 29.30 33.23 35.72 41.92 35.88 43.43 49.03 50.91 52.12 52.41 51.44 50.97 50.73 52.74 53.37 54.06 54.69 54.42 55.69 57.11 58.17 58.73 59.04 59.63 59.72 60.11 60.48 61.26 62.37 61.85 62.88 63.02 63.11 63.67 65.77
40.53 39.02 45.31 45.90 48.06 46.52 42.49 41.74 44.12 38.63 38.84 36.11 39.50 42.24 48.01 49.77 50.10 50.71 51.09 51.54 49.07 50.51 50.91 52.62 52.42 52.81 54.07 54.69 55.51 56.12 55.22 55.43 56.42 57.37 57.96 58.25 59.00 58.94 58.74 60.47 60.84 60.84 62.51 62.87
42.69 38.04 42.37 43.89 46.99 47.95 45.17 46.28 39.20 41.76 30.65 29.14 35.70 37.36 39.24 45.84 48.31 49.34 49.44 49.87 49.70 51.49 51.92 51.68 51.51 52.30 53.40 55.11 56.22 55.54 55.06 54.47 55.34 55.45 55.62 55.53 56.86 57.74 58.18 58.78 59.19 59.62 61.02 62.51
44.51 41.25 39.40 42.38 42.44 40.84 42.63 41.94 42.37 41.91 40.19 33.56 29.52 35.90 47.16 47.51 49.94 49.67 49.47 50.37 51.38 51.01 51.57 52.63 52.98 52.55 52.40 53.59 53.77 54.75 55.52 55.16 54.20 54.89 54.85 55.57 55.37 57.03 58.02 58.26 59.02 59.30 61.00 61.80
42.85 41.53 37.81 38.19 43.33 46.59 44.74 42.08 41.89 36.34 34.06 37.64 36.16 34.95 47.33 49.67 51.22 51.44 50.42 50.86 51.88 52.40 51.80 51.85 53.70 53.67 53.90 52.93 52.59 52.76 53.10 52.85 54.19 53.87 54.70 52.80 54.62 55.01 55.47 56.68 57.34 59.08 59.83 61.87
44.44 39.90 35.45 36.39 40.76 42.74 41.38 42.80 42.99 41.69 41.17 35.29 32.27 35.65 48.86 49.53 50.70 51.84 50.99 51.36 51.92 52.00 51.46 52.44 53.85 53.54 53.67 53.57 51.68 51.42 52.49 52.98 53.15 53.11 53.09 53.83 53.78 53.23 54.86 55.97 56.88 58.01 58.75 59.50
46.62 41.90 39.16 34.54 37.20 40.79 38.33 39.98 42.87 41.61 35.77 35.92 36.48 38.28 42.94 45.29 46.83 49.66 51.25 51.65 52.24 51.30 52.28 54.06 53.27 52.80 53.58 52.90 50.25 51.12 51.73 51.65 52.18 52.30 51.94 51.55 51.85 52.70 53.80 54.82 55.62 55.81 56.20 57.34
44.39 38.95 39.53 40.05 40.13 39.79 39.80 39.56 40.28 39.40 39.83 35.60 37.82 38.26 41.94 45.11 46.77 48.42 50.77 52.62 52.22 51.90 52.98 53.10 53.33 52.78 52.58 50.77 50.63 50.63 51.15 51.63 52.44 51.58 51.20 52.19 53.02 53.20 53.36 53.71 54.17 54.56 55.66 55.86
42.86 39.53 39.30 37.49 40.20 40.35 37.96 40.12 40.83 40.36 40.18 39.63 39.88 39.16 46.17 47.78 48.01 49.61 49.67 51.66 52.34 51.75 51.96 53.17 53.51 52.37 52.04 51.00 50.68 50.80 52.40 52.01 52.47 51.43 51.07 51.98 52.94 53.00 53.38 54.01 54.38 54.07 55.13 55.48
41.35 40.07 36.83 32.18 35.91 36.57 33.45 38.05 39.03 39.90 41.26 40.58 37.39 43.01 46.00 45.60 46.54 49.34 51.01 51.93 52.18 52.42 52.23 52.99 52.98 53.11 52.16 51.25 51.33 51.24 51.99 52.52 51.42 51.34 51.55 52.16 52.52 52.69 53.19 53.78 53.92 53.89 54.29 55.33
39.31 38.83 37.62 33.23 34.78 26.71 37.79 42.21 41.71 40.86 42.41 44.43 44.00 45.16 45.27 45.66 47.62 49.19 51.66 52.94 51.34 50.76 47.99 50.03 50.38 50.17 52.02 52.00 51.83 51.79 51.57 51.37 50.36 50.70 50.96 51.49 52.19 52.32 52.96 53.44 53.44 53.60 54.00 53.86
42.32 39.53 34.78 32.18 31.68 35.88 38.34 41.13 41.11 39.53 40.10 45.15 44.28 44.99 44.96 46.30 48.11 46.89 49.07 51.53 51.21 50.93 50.85 51.09 52.36 52.34 52.28 51.47 51.24 50.88 50.93 50.78 50.23 50.24 50.61 50.94 51.56 51.57 51.90 51.99 52.57 53.79 53.58 53.78
39.32 41.75 36.79 33.37 29.68 27.70 37.75 43.49 45.60 44.67 36.21 44.77 45.88 45.05 45.07 45.76 43.63 44.89 48.39 50.18 50.61 51.48 52.27 51.65 51.75 51.16 51.41 51.68 50.71 50.53 50.64 50.45 50.08 50.19 50.60 51.37 51.77 52.30 52.02 52.58 52.69 53.54 53.95 53.32
35.17 35.39 33.22 33.46 32.46 36.40 42.73 43.20 46.37 34.63 37.53 45.31 46.70 46.86 46.04 45.37 46.55 48.75 49.54 49.39 50.45 50.37 50.26 50.93 51.14 50.88 51.01 51.29 50.86 50.51 50.49 49.73 50.66 50.79 50.98 51.43 52.05 52.39 52.62 53.08 53.50 53.35 53.30 53.54
36.37 35.00 34.23 34.99 32.10 29.96 44.50 44.51 39.42 44.58 47.65 46.66 46.80 47.92 46.98 46.98 47.21 47.82 48.09 48.17 48.80 48.96 49.28 49.25 49.31 49.55 50.07 50.34 49.59 49.04 49.00 50.79 51.37 51.38 51.15 51.29 51.84 51.83 52.09 52.67 52.71 53.15 52.95 52.03
36.03 39.66 38.79 38.26 38.82 43.21 46.15 46.20 48.82 49.31 48.33 47.63 47.50 47.97 48.11 47.03 46.21 46.39 46.45 46.75 46.85 46.97 47.73 48.11 47.74 47.69 48.68 49.38 49.19 48.34 49.31 50.22 50.66 50.90 51.14 51.88 52.32 52.30 52.05 51.42 51.62 50.84 51.53 50.77
40.28 41.89 40.53 39.41 42.19 43.12 45.46 46.93 48.13 48.96 48.97 49.64 48.90 48.32 48.29 47.05 46.08 45.67 45.77 47.00 45.03 46.76 46.84 47.41 47.22 46.86 47.20 48.60 48.81 49.65 49.80 50.35 50.46 50.55 51.12 51.68 51.43 50.27 51.36 50.71 50.37 49.95 49.73 49.64
40.07 40.18 38.86 39.04 41.95 43.37 44.39 45.92 46.94 47.62 49.29 48.80 48.58 48.00 47.07 47.38 45.53 45.00 44.94 45.45 45.03 45.37 44.77 45.29 44.97 44.38 44.28 45.78 46.26 47.91 48.13 49.44 49.26 49.63 49.79 49.85 48.67 46.71 47.21 48.20 49.03 48.76 50.02 48.00
41.00 38.84 37.38 35.82 42.29 41.90 42.38 45.56 46.63 46.67 47.94 48.74 46.89 45.14 45.39 46.37 43.23 44.14 42.94 43.06 43.40 43.07 43.58 43.91 44.23 44.45 44.45 44.85 44.96 46.02 47.57 48.86 48.05 46.35 46.21 47.34 45.02 44.41 44.91 46.89 47.18 43.62 41.33 40.74
MSLP
1011.70 1011.39 1011.65 1011.99 1012.15 1012.26 1012.31 1012.18 1011.83 1011.17 1011.00 1010.63 1009.61 1009.29 1008.76 1009.02 1009.38 1009.62 1009.67 1009.22 1008.52 1008.39 1008.81 1008.59 1008.52 1008.76 1009.08 1009.39 1009.68 1009.84 1010.34 1010.88 1011.52 1012.04 1012.06 1012.53 1012.77 1013.21 1013.52 1013.77 1014.33 1014.30 1014.29 1014.69
1011.77 1011.82 1012.28 1012.41 1012.53 1012.56 1012.62 1012.39 1011.96 1011.38 1011.15 1010.75 1009.51 1009.13 1008.85 1009.52 1010.36 1011.00 1010.99 1010.48 1009.83 1009.31 1009.53 1009.67 1009.43 1009.21 1009.27 1009.59 1009.84 1010.25 1010.42 1011.02 1011.27 1011.69 1012.01 1012.19 1012.37 1012.59 1012.84 1013.24 1013.81 1013.88 1013.83 1014.37
1011.82 1012.47 1012.48 1012.46 1012.56 1012.48 1012.78 1012.74 1012.53 1012.07 1011.28 1010.49 1009.87 1008.65 1009.05 1010.21 1010.90 1011.56 1011.87 1012.14 1011.67 1011.06 1010.82 1010.96 1010.73 1010.36 1010.14 1010.34 1010.23 1010.26 1010.48 1010.88 1011.38 1011.56 1011.87 1012.08 1012.28 1012.56 1012.67 1012.85 1013.19 1013.32 1013.72 1013.86
1012.46 1012.81 1012.67 1012.74 1012.78 1012.94 1012.83 1013.12 1012.82 1012.19 1011.51 1010.60 1010.79 1009.60 1009.81 1010.57 1011.25 1012.10 1012.62 1013.06 1012.99 1012.37 1012.11 1012.10 1011.94 1011.70 1011.44 1011.25 1010.93 1010.62 1010.58 1010.96 1011.23 1011.47 1011.47 1011.74 1011.82 1011.98 1012.37 1012.69 1013.07 1013.12 1013.26 1013.72
1013.18 1013.17 1013.12 1013.08 1013.48 1013.36 1013.48 1013.36 1012.91 1012.34 1011.81 1011.58 1010.97 1011.27 1010.49 1011.51 1011.69 1013.12 1013.89 1014.30 1014.56 1013.99 1013.41 1013.32 1013.22 1013.01 1012.81 1012.39 1011.94 1011.61 1011.53 1011.62 1011.71 1011.73 1011.70 1011.82 1012.08 1012.36 1012.91 1012.96 1013.51 1013.57 1013.69 1013.70
1013.48 1013.77 1013.81 1013.83 1013.90 1013.98 1013.96 1013.35 1012.91 1012.91 1012.39 1011.83 1012.28 1012.69 1011.80 1013.18 1014.54 1014.63 1015.33 1015.67 1016.03 1015.63 1014.93 1014.50 1014.32 1013.77 1013.69 1013.43 1012.78 1012.59 1012.56 1012.97 1013.03 1012.83 1013.03 1012.99 1013.16 1013.32 1013.47 1013.60 1013.77 1013.61 1013.77 1014.06
1014.07 1014.28 1014.51 1014.49 1014.18 1014.39 1014.08 1013.66 1013.06 1012.90 1012.70 1012.38 1013.34 1013.25 1013.32 1014.88 1015.73 1016.11 1016.41 1016.91 1017.30 1017.19 1016.85 1015.69 1015.17 1014.95 1014.82 1014.38 1014.23 1013.94 1013.81 1013.96 1014.28 1013.80 1014.52 1014.22 1014.22 1014.42 1014.49 1014.57 1014.74 1014.41 1014.32 1014.12
1014.45 1014.85 1015.05 1015.22 1015.08 1015.05 1015.08 1015.12 1014.77 1014.38 1014.06 1013.62 1014.03 1013.67 1014.15 1015.71 1016.31 1016.64 1017.16 1017.61 1017.89 1018.35 1018.28 1017.35 1016.44 1016.30 1016.20 1015.95 1015.37 1015.32 1014.83 1014.80 1014.85 1014.77 1015.11 1015.15 1015.39 1015.40 1015.59 1015.83 1015.57 1015.63 1015.02 1014.52
1015.19 1015.52 1015.84 1015.97 1015.77 1015.91 1015.75 1015.91 1016.74 1016.19 1016.50 1015.82 1014.72 1014.64 1015.05 1015.91 1016.18 1016.86 1017.37 1017.92 1018.36 1018.99 1019.17 1019.03 1017.81 1017.24 1017.49 1017.21 1016.58 1016.62 1016.32 1016.00 1015.55 1015.79 1015.80 1015.91 1016.00 1015.88 1016.06 1016.14 1016.10 1016.06 1015.44 1014.96
1016.13 1016.08 1016.45 1016.55 1016.51 1016.72 1016.48 1017.31 1017.27 1017.26 1017.04 1016.25 1015.31 1015.31 1014.87 1015.63 1016.09 1016.83 1017.30 1017.88 1018.46 1018.59 1019.82 1019.52 1019.49 1018.52 1018.47 1018.50 1017.90 1017.30 1017.08 1016.74 1016.31 1015.95 1016.26 1016.31 1016.26 1016.48 1016.28 1016.04 1015.86 1015.57 1015.44 1015.29
1016.67 1016.92 1017.06 1017.07 1017.08 1017.12 1017.43 1017.52 1018.12 1018.39 1018.38 1017.70 1016.80 1015.44 1015.48 1015.63 1016.09 1016.66 1017.33 1017.80 1018.23 1018.64 1019.27 1019.60 1019.74 1019.76 1019.32 1019.05 1019.00 1017.51 1017.27 1016.93 1016.85 1016.77 1016.86 1017.20 1016.83 1016.66 1016.63 1016.48 1016.31 1015.87 1015.70 1015.39
1017.62 1017.59 1017.22 1017.41 1017.99 1018.17 1018.04 1018.01 1018.27 1018.36 1018.67 1018.51 1017.90 1015.99 1015.55 1015.71 1015.96 1016.42 1016.91 1017.52 1017.86 1018.15 1018.83 1019.62 1019.32 1019.38 1019.56 1019.56 1019.67 1018.08 1017.84 1018.08 1017.74 1017.57 1016.89 1017.78 1016.75 1017.45 1017.36 1016.87 1016.45 1015.72 1015.63 1015.39
1017.69 1017.98 1017.58 1017.57 1018.21 1018.28 1018.15 1018.25 1018.51 1018.87 1019.07 1018.54 1017.95 1015.86 1015.75 1015.79 1015.76 1015.94 1016.34 1016.79 1016.99 1017.28 1017.53 1018.63 1019.36 1019.50 1019.20 1019.41 1019.57 1018.69 1018.05 1018.36 1017.45 1017.33 1017.29 1017.78 1016.87 1017.92 1017.06 1017.40 1017.86 1015.98 1015.44 1015.53
1017.79 1017.96 1017.72 1017.37 1017.30 1017.79 1017.89 1017.97 1018.21 1018.40 1018.34 1017.50 1016.67 1015.65 1015.24 1015.06 1014.96 1015.35 1015.64 1015.82 1016.13 1016.91 1017.69 1018.14 1018.94 1019.08 1019.07 1019.40 1019.27 1018.54 1018.22 1018.56 1018.36 1017.98 1018.06 1018.05 1017.97 1017.97 1017.46 1017.87 1017.51 1016.25 1015.87 1015.62
1018.24 1017.99 1018.05 1017.76 1017.82 1017.87 1017.64 1017.46 1017.60 1017.74 1017.40 1017.00 1015.98 1015.52 1014.77 1014.38 1014.34 1014.36 1014.62 1015.08 1015.50 1016.28 1017.17 1017.60 1018.26 1018.68 1018.82 1018.75 1018.58 1018.63 1018.42 1018.46 1018.30 1018.34 1018.19 1018.10 1017.89 1018.03 1017.56 1017.15 1016.82 1016.65 1016.42 1015.68
1018.84 1018.42 1018.60 1018.15 1017.97 1017.66 1017.25 1016.91 1016.85 1016.82 1016.60 1016.26 1016.01 1015.10 1014.57 1014.38 1014.32 1014.09 1013.97 1014.37 1015.16 1016.21 1016.81 1017.35 1017.95 1018.27 1018.37 1018.27 1018.56 1018.53 1018.41 1018.54 1018.21 1018.22 1017.99 1017.74 1017.68 1017.79 1017.51 1017.19 1016.94 1016.82 1016.57 1016.18
1018.95 1018.92 1019.10 1018.30 1018.37 1017.92 1016.85 1015.62 1015.94 1015.98 1015.97 1015.70 1015.23 1014.58 1014.95 1014.56 1014.55 1014.48 1014.07 1014.43 1015.12 1015.76 1016.23 1017.03 1017.45 1017.58 1017.84 1017.97 1018.27 1018.41 1018.40 1018.15 1018.28 1018.13 1017.95 1017.72 1017.70 1017.64 1017.15 1016.88 1016.91 1016.60 1016.31 1015.99
1019.22 1019.42 1019.53 1018.75 1018.63 1017.44 1015.81 1015.84 1015.82 1015.71 1015.44 1015.52 1015.34 1015.11 1015.35 1015.44 1015.39 1015.18 1014.96 1014.92 1015.55 1016.06 1016.09 1016.66 1017.27 1017.64 1017.57 1017.81 1018.12 1018.23 1018.18 1018.13 1018.13 1017.97 1017.89 1017.55 1017.53 1017.24 1016.96 1016.77 1016.53 1016.22 1016.00 1015.94
1019.34 1019.54 1019.55 1019.34 1018.34 1016.89 1015.87 1015.89 1015.77 1015.64 1015.09 1015.13 1015.11 1015.26 1015.62 1015.77 1015.46 1015.52 1015.60 1015.70 1015.84 1016.04 1016.46 1017.03 1017.13 1017.52 1017.84 1018.08 1018.17 1018.14 1018.07 1017.95 1017.65 1017.70 1017.79 1017.44 1017.29 1016.90 1016.66 1016.42 1016.27 1016.06 1015.83 1015.63
1019.71 1019.64 1019.71 1019.54 1018.49 1016.98 1015.94 1015.92 1016.04 1016.00 1015.15 1015.02 1015.36 1015.49 1015.72 1015.83 1015.29 1015.80 1016.15 1016.12 1016.29 1016.51 1016.66 1016.98 1017.31 1017.57 1017.63 1017.78 1018.14 1018.10 1017.80 1017.73 1017.59 1017.62 1017.54 1017.35 1016.97 1016.53 1016.31 1016.18 1015.90 1015.69 1015.62 1015.30
1019.73 1019.88 1019.44 1019.02 1018.35 1016.81 1016.01 1016.08 1016.20 1016.04 1015.97 1015.68 1015.69 1015.74 1016.00 1015.97 1016.29 1016.37 1016.69 1016.90 1017.11 1017.27 1017.31 1017.52 1017.68 1017.73 1017.91 1017.97 1017.88 1017.75 1017.86 1017.73 1017.66 1017.56 1017.41 1017.08 1016.58 1016.26 1016.14 1015.87 1015.63 1015.43 1015.24 1015.06
1018.86 1019.06 1018.87 1018.74 1018.14 1017.01 1016.31 1016.23 1016.17 1016.05 1015.89 1015.97 1015.92 1016.05 1016.31 1016.67 1016.97 1017.24 1017.55 1017.74 1017.79 1017.72 1017.80 1018.05 1018.07 1018.13 1018.33 1018.41 1018.27 1017.92 1017.59 1017.35 1017.16 1016.85 1016.63 1016.35 1016.10 1016.06 1015.80 1015.67 1015.43 1015.06 1014.88 1014.52
1018.81 1018.52 1018.34 1018.21 1017.03 1016.78 1016.66 1016.47 1016.28 1016.37 1016.19 1016.07 1016.13 1016.28 1016.50 1016.81 1017.39 1017.86 1018.14 1018.40 1018.60 1018.68 1018.64 1018.69 1018.68 1018.58 1018.52 1018.51 1018.41 1018.07 1017.73 1017.60 1017.21 1016.69 1016.26 1016.00 1015.70 1015.51 1015.24 1015.07 1015.12 1014.75 1014.47 1014.43
1018.65 1018.74 1018.38 1017.97 1016.87 1016.72 1016.58 1016.47 1016.33 1016.33 1016.29 1016.33 1016.44 1016.69 1016.99 1017.16 1017.72 1018.25 1018.37 1018.66 1019.09 1019.12 1018.98 1018.94 1018.82 1018.60 1018.48 1018.51 1018.41 1018.15 1017.97 1017.69 1017.28 1016.80 1016.47 1015.98 1015.64 1015.43 1015.11 1015.11 1014.92 1014.60 1014.43 1014.19
1018.88 1018.71 1017.94 1017.37 1016.94 1016.64 1016.17 1016.23 1016.32 1016.25 1016.25 1016.42 1016.64 1016.96 1017.39 1017.65 1018.30 1018.75 1018.98 1019.08 1019.25 1019.22 1019.43 1019.28 1018.97 1018.92 1018.69 1018.45 1018.28 1018.06 1017.80 1017.47 1017.05 1016.64 1016.28 1016.06 1015.86 1015.63 1015.38 1015.14 1014.87 1014.56 1014.39 1014.45
1018.03 1017.50 1017.58 1016.96 1016.70 1016.75 1016.48 1016.37 1016.44 1016.30 1016.15 1016.39 1016.88 1017.53 1017.92 1018.16 1018.17 1019.09 1019.34 1019.48 1019.34 1019.30 1019.26 1019.10 1019.08 1018.94 1018.62 1018.41 1018.20 1017.87 1017.64 1017.30 1016.99 1016.83 1016.51 1016.09 1016.06 1015.64 1015.22 1014.69 1014.41 1014.50 1014.70 1014.65
Wind_Speed
4 6 7 5 2 2 2 1 3 6 1 4 8 8 11 5 9 12 14 15 12 8 6 7 6 3 4 6 8 11 12 12 10 9 9 7 8 7 6 6 7 8 7 8
4 8 1 1 3 2 2 1 4 8 3 5 10 10 8 3 8 11 15 16 15 11 8 10 7 5 3 4 6 8 11 11 9 8 7 5 5 5 5 5 9 7 6 7
5 3 2 5 6 4 5 4 7 8 10 8 9 14 4 3 6 11 15 15 15 12 11 11 10 9 7 6 0 7 9 10 10 10 7 4 4 3 4 6 5 6 8 10
5 5 5 7 5 2 3 7 6 10 11 8 6 7 4 5 1 15 16 17 14 12 12 12 12 13 11 8 6 2 6 8 6 9 8 10 7 7 5 5 4 4 8 10
3 3 6 6 4 2 3 7 9 10 11 8 5 6 1 5 8 18 17 15 16 11 12 13 13 14 14 13 12 12 12 9 4 4 6 7 6 4 4 5 6 6 5 2
4 2 4 4 1 3 10 6 5 1 3 5 5 5 1 6 9 14 15 15 16 14 11 13 13 14 15 13 15 16 18 16 15 15 13 11 11 8 7 8 6 6 6 6
3 3 1 3 1 2 11 6 3 2 3 2 3 7 5 5 7 9 10 13 16 14 11 12 15 15 14 16 15 15 18 18 15 18 16 15 14 13 12 9 7 7 4 5
3 5 3 5 3 4 3 3 2 4 3 5 10 6 2 2 3 5 5 8 13 14 11 9 15 14 13 14 15 15 16 15 14 15 14 12 12 7 7 7 6 4 4 5
2 3 0 6 3 3 2 1 2 4 0 4 2 2 5 0 3 6 7 8 13 12 11 12 12 11 11 12 15 14 12 12 13 12 10 11 9 9 7 6 5 2 4 5
2 3 1 2 1 8 1 3 2 1 4 6 3 5 6 3 5 4 1 5 9 10 9 9 11 9 8 9 8 11 10 11 10 10 9 8 8 8 7 6 8 8 6 6
2 2 3 2 2 2 3 3 3 1 3 3 5 4 1 3 6 6 4 5 8 8 6 7 7 7 7 9 8 9 10 11 11 11 11 11 10 9 7 7 7 7 7 5
2 1 3 1 3 1 1 2 2 3 4 4 4 7 3 5 5 6 8 9 8 6 3 2 4 5 7 7 9 5 5 5 6 4 7 4 8 7 8 8 7 7 8 7
6 1 3 4 4 4 5 4 3 3 0 8 4 5 1 4 4 9 11 12 12 11 9 7 7 2 5 4 7 7 10 7 8 8 8 6 9 2 7 9 9 8 8 9
5 5 9 8 6 0 6 7 9 9 6 9 14 18 19 18 16 10 14 16 17 12 9 8 4 4 3 2 5 4 1 5 4 5 5 6 5 4 4 4 6 7 8 7
3 8 7 9 7 6 13 15 13 15 16 15 17 19 21 20 18 16 14 18 16 13 10 9 7 3 5 4 3 3 2 1 4 5 6 5 5 5 5 6 7 8 8 8
2 5 2 8 9 13 17 17 17 18 19 20 19 22 18 13 10 12 11 14 13 8 10 7 8 10 8 6 5 4 0 2 5 7 8 7 6 6 6 6 6 6 7 7
4 4 2 6 1 6 12 17 14 12 10 10 12 9 10 16 12 9 6 8 10 9 8 7 4 5 6 4 3 3 3 3 5 7 8 8 8 8 7 7 7 7 7 8
5 4 4 4 3 6 2 2 5 8 6 10 10 11 8 7 4 5 4 4 8 7 8 5 7 5 5 3 3 4 4 4 5 7 8 8 9 9 9 9 8 7 6 7
10 7 4 4 6 8 5 3 4 2 6 9 9 5 2 2 1 8 5 5 8 10 9 5 2 2 4 4 3 5 5 4 5 8 8 9 9 10 11 11 10 9 7 8
6 6 6 4 4 4 0 5 2 2 10 2 6 4 4 3 3 4 5 9 10 7 4 0 4 5 5 4 5 6 6 6 8 9 8 9 10 10 10 11 12 9 7 9
5 4 11 7 5 6 4 2 1 8 4 6 5 6 5 2 5 4 4 3 3 3 4 4 4 6 7 8 8 8 7 9 8 9 9 10 9 9 11 10 8 8 9 8
4 6 5 5 5 8 1 3 5 5 2 4 4 7 5 2 5 5 5 5 6 7 7 6 5 6 6 6 7 9 11 12 12 12 12 12 11 8 8 8 8 8 7 7
4 5 2 6 3 2 2 5 7 5 6 4 6 5 6 8 7 8 7 8 7 6 6 6 6 6 7 7 7 9 10 11 12 13 14 13 12 9 7 6 7 7 7 6
3 3 5 3 3 6 6 8 9 7 9 6 4 6 7 8 5 1 2 3 4 6 7 7 8 8 8 8 9 9 10 10 11 12 12 10 9 8 7 6 6 6 7 8
7 3 7 11 13 12 13 7 6 8 7 5 6 5 4 4 4 2 3 3 3 5 5 6 7 8 10 11 12 11 12 11 11 10 9 10 8 8 9 8 8 8 9 8
9 14 9 9 13 11 13 12 10 10 8 8 10 8 7 6 7 4 3 3 5 5 5 6 7 9 10 11 12 12 11 12 9 7 9 8 8 8 9 10 10 6 11 12
Wind_Direction
31 94 59 40 76 102 151 232 302 305 302 280 315 298 309 348 24 7 1 349 339 349 14 7 2 303 250 236 219 202 198 186 178 194 192 203 210 210 209 200 211 222 212 221
129 71 13 80 110 131 105 21 9 290 306 290 316 298 289 25 38 24 10 7 0 3 30 32 23 25 30 210 196 194 194 182 183 191 196 201 190 219 220 204 219 202 211 229
73 50 309 115 83 99 94 33 344 308 316 265 299 282 212 119 62 31 29 19 14 15 29 30 35 36 44 42 91 194 191 175 180 191 188 155 149 196 207 223 235 228 220 222
64 4 97 92 69 320 115 358 322 315 323 314 4 289 250 337 339 24 19 16 13 13 40 39 35 38 33 30 44 76 179 178 183 186 189 196 207 208 204 197 210 215 232 243
81 61 80 79 68 32 5 321 308 296 286 296 255 260 35 332 340 7 4 11 3 11 48 40 45 48 42 38 43 50 65 67 73 188 216 204 205 167 124 110 111 99 85 66
92 50 41 8 153 44 326 298 292 235 266 253 75 348 288 19 340 341 357 4 5 356 47 51 52 54 52 49 56 55 61 53 51 59 54 64 75 81 88 78 78 63 70 58
111 46 81 5 297 140 8 344 322 227 202 300 50 303 11 360 358 351 350 5 5 4 4 66 61 53 46 56 62 66 66 64 56 63 55 59 59 56 53 51 52 58 53 62
220 196 14 352 34 333 27 346 319 284 266 311 327 270 67 1 342 3 23 43 38 15 1 43 67 53 50 48 54 56 71 75 74 75 71 63 54 47 49 48 60 51 49 45
205 165 313 38 45 332 61 105 31 277 240 261 260 251 179 178 338 359 13 35 53 27 15 7 55 61 58 53 54 47 46 58 67 60 61 61 57 65 66 61 61 46 48 43
131 275 47 55 229 58 357 89 197 101 278 271 235 268 277 264 290 294 296 83 84 70 15 12 11 50 51 30 51 62 46 35 37 58 48 47 41 31 31 32 30 29 21 17
88 270 121 227 40 103 142 143 77 81 260 272 296 255 269 308 272 241 188 144 121 93 78 8 17 20 28 14 358 43 41 42 44 47 41 28 23 21 26 22 15 16 10 12
57 146 248 54 105 29 325 153 181 230 204 242 286 274 309 258 288 218 192 169 157 138 140 326 339 5 13 1 326 22 35 22 38 36 70 46 48 10 359 2 358 13 8 7
172 185 275 182 167 187 238 186 156 122 160 228 238 253 152 258 250 211 209 197 194 198 189 213 232 22 300 15 318 357 11 352 21 20 34 19 39 343 3 353 332 7 10 358
165 188 238 261 296 152 238 218 209 217 226 261 238 282 290 292 286 263 224 217 212 221 239 223 192 187 209 243 275 254 349 334 341 8 11 7 7 346 359 302 321 358 1 359
225 246 219 249 250 239 261 257 241 230 252 257 281 284 288 291 299 295 254 232 230 225 234 215 199 210 208 243 245 291 280 332 358 3 17 13 1 340 352 358 347 342 339 348
164 242 231 267 263 257 260 259 256 261 263 261 266 276 291 306 309 310 266 234 216 203 231 220 199 198 225 189 203 204 55 18 12 354 345 344 343 335 336 337 342 334 335 336
215 199 209 268 310 293 264 254 243 249 252 251 250 286 325 314 328 335 305 214 189 181 181 245 202 221 196 204 289 326 315 349 346 335 339 333 324 315 326 327 317 320 326 329
181 195 202 274 260 244 50 247 276 243 255 220 263 280 307 310 336 355 331 184 149 147 97 119 148 176 206 216 250 273 280 294 315 316 322 323 319 318 319 312 312 318 318 314
216 189 208 245 226 313 264 155 159 282 276 229 249 271 277 151 148 55 45 115 122 117 125 134 101 324 315 283 284 275 270 279 309 313 314 321 314 313 314 312 315 310 299 302
163 219 215 187 243 253 88 159 21 188 278 278 234 221 185 220 276 103 124 126 128 127 133 132 296 307 297 355 346 314 313 312 298 314 310 308 309 310 309 307 303 303 294 294
137 172 215 221 252 276 289 242 200 245 351 338 261 215 192 282 1 111 152 98 65 47 38 5 337 324 335 342 348 323 304 288 315 312 309 301 304 308 305 302 294 293 292 295
208 186 201 202 233 258 115 189 243 8 319 287 254 221 227 67 92 93 69 38 20 16 14 15 350 343 346 349 334 324 318 326 321 316 309 304 306 306 304 298 294 296 296 298
239 242 281 222 248 16 304 303 307 297 287 289 242 193 173 137 91 61 39 22 9 355 349 353 339 323 325 337 337 322 322 321 318 314 313 314 316 315 319 317 314 307 305 301
233 197 247 278 204 238 257 291 274 266 267 276 249 183 167 132 119 22 215 244 305 323 333 337 327 325 323 328 323 313 318 316 310 308 310 313 317 331 318 313 295 300 300 301
275 268 264 271 277 280 273 269 309 300 272 228 163 155 143 111 75 39 250 269 291 312 316 320 327 321 320 324 317 316 315 310 306 311 318 323 325 322 313 303 298 299 292 296
235 250 247 261 279 280 287 288 307 297 270 196 154 132 124 144 135 203 259 296 310 311 325 325 317 316 321 321 317 313 310 299 308 325 313 318 316 314 305 309 306 269 253 278